Wind_Speed
35 35 35 34 34 32 33 32 32 32 32 30 30 29 28 26 23 23 25 23 21 19 18 16 14 13 15 17 18 20 21 24 27 31 35 36 39 44 47 51 49 49 55
37 36 35 35 35 34 33 33 33 32 33 33 30 31 30 26 26 25 25 23 21 20 17 16 16 17 17 20 21 23 25 28 30 33 35 39 43 48 53 53 51 51 57
35 35 34 33 33 34 33 33 33 34 33 32 33 31 30 28 28 26 26 24 23 22 18 17 19 19 20 21 22 25 28 31 34 35 39 43 47 51 55 56 52 52 59
34 35 33 32 31 31 32 31 32 32 33 32 31 32 30 29 28 26 26 25 25 23 21 20 22 22 23 24 25 28 32 35 35 38 42 45 49 53 56 54 50 53 62
35 34 34 33 31 31 30 30 31 31 32 32 31 30 29 27 27 27 28 26 25 24 22 23 24 24 26 27 30 33 35 36 37 41 44 46 51 54 54 53 52 55 63
37 35 34 34 32 32 32 31 31 31 31 32 31 30 28 28 27 29 29 28 25 25 24 25 26 26 28 30 33 36 36 38 40 44 47 50 54 57 57 54 55 56 66
40 39 36 35 33 34 34 31 30 32 32 33 32 32 31 30 30 30 31 29 27 27 27 28 28 29 32 34 36 37 38 41 44 48 51 56 58 59 60 58 58 61 69
43 40 39 34 34 35 36 32 29 30 33 34 35 35 33 32 33 32 31 29 30 29 30 31 31 32 34 37 39 39 41 44 47 50 54 58 61 62 62 59 62 66 72
45 44 42 38 36 37 37 35 31 28 30 34 35 35 33 34 33 32 31 31 31 30 32 33 33 35 37 39 41 42 45 47 49 54 57 59 62 63 63 61 66 70 74
47 46 45 43 39 38 39 38 33 32 30 31 31 33 33 33 33 32 32 32 32 32 35 36 37 39 40 41 43 46 48 50 54 57 60 63 64 64 63 66 68 72 76
49 48 48 46 41 41 40 40 39 36 34 33 32 32 32 33 34 34 34 33 34 35 38 40 41 42 44 45 48 50 52 54 57 60 63 64 66 66 66 67 72 75 77
52 50 49 48 45 44 44 42 41 40 38 36 35 35 35 35 36 35 35 35 37 39 42 44 45 47 48 50 51 53 55 57 60 62 66 67 69 69 70 71 75 77 80
56 53 54 51 49 47 46 45 44 41 41 39 38 38 37 38 38 38 38 39 40 43 46 47 48 50 51 53 54 56 59 61 64 66 68 69 69 70 72 74 77 81 83
56 56 57 53 51 50 50 48 47 45 44 42 41 41 41 41 42 42 41 42 45 47 49 50 52 54 55 56 58 60 62 64 67 69 70 72 72 72 74 78 81 84 86
57 57 57 57 55 54 53 52 51 49 47 47 46 45 45 44 44 44 46 47 48 51 52 55 55 57 58 60 61 63 65 66 69 71 73 74 75 75 79 83 85 88 90
51 56 58 60 56 58 57 57 56 54 52 51 50 49 48 47 47 48 50 51 52 54 56 57 58 59 62 64 64 66 68 70 72 74 76 75 76 79 83 86 88 91 92
53 56 64 58 59 59 59 60 60 59 57 55 54 53 52 52 52 55 55 56 55 57 58 59 60 63 65 67 68 69 71 74 75 77 76 77 79 83 87 88 92 93 95
75 53 60 64 68 66 63 62 62 62 61 59 58 57 57 57 59 59 59 58 59 62 62 62 64 67 68 69 71 72 74 75 77 76 78 79 83 88 89 93 95 96 96
74 73 63 66 68 70 68 66 66 66 65 64 63 62 62 62 63 64 64 63 63 63 64 67 69 70 73 73 74 76 76 78 80 79 80 83 87 89 93 95 96 99 100
81 80 81 77 69 68 71 72 69 67 67 67 67 66 65 67 67 66 66 65 66 68 70 71 73 74 76 76 77 78 79 81 80 81 84 87 90 94 96 97 100 103 106
84 85 83 83 81 75 69 69 69 69 69 69 70 70 68 68 68 66 67 70 72 73 75 76 77 77 78 79 79 81 79 81 83 86 88 90 94 97 98 100 104 107 107
90 86 86 85 82 81 81 75 70 69 70 71 71 71 70 70 69 71 73 76 77 77 79 80 79 79 80 82 80 78 79 83 87 88 91 94 96 98 101 105 107 109 110
93 90 87 88 87 86 83 81 77 73 73 74 73 73 72 72 74 76 79 80 81 81 81 81 82 82 80 80 82 83 84 83 86 92 96 98 99 102 105 107 109 109 108
99 95 92 89 88 88 86 84 83 82 81 79 79 79 79 80 81 81 82 83 83 83 84 84 83 81 82 83 85 87 85 88 89 90 94 99 103 106 108 107 111 109 105
103 100 97 94 91 89 89 88 86 85 84 83 83 83 83 83 83 83 83 84 84 83 82 82 83 84 85 86 85 87 89 91 94 93 95 100 104 106 106 110 104 103 100
109 105 103 99 96 94 92 91 90 89 88 86 86 85 85 85 85 85 85 84 84 85 85 85 86 85 85 87 89 90 92 94 97 99 99 103 104 103 105 102 98 99 96
Wind_Direction
230 232 234 238 241 245 247 250 253 256 256 253 253 256 258 265 270 264 270 271 267 270 279 280 279 280 287 292 298 306 312 315 321 319 319 322 326 331 332 337 338 342 343
229 230 233 239 244 247 251 252 254 257 255 251 255 257 256 260 264 264 266 262 263 267 270 272 271 278 287 296 306 311 313 316 316 315 318 320 325 326 331 335 336 339 341
233 233 236 241 246 250 252 256 257 258 254 253 252 254 254 255 261 261 261 257 260 264 266 267 271 280 291 299 302 309 314 316 315 316 318 321 323 324 328 331 333 335 338
235 234 240 244 248 250 251 253 258 256 251 251 249 252 253 255 256 254 255 255 258 262 262 265 271 280 289 296 302 309 313 314 312 315 318 322 324 326 329 329 331 332 334
236 235 238 243 246 248 249 251 252 255 249 248 248 250 249 250 251 250 252 255 258 258 261 267 273 282 288 294 301 305 309 311 311 316 319 323 326 328 330 331 330 328 329
233 235 239 243 246 245 246 250 250 248 246 245 245 248 247 247 247 249 252 256 258 258 263 269 277 282 287 293 298 304 308 310 314 316 319 324 325 329 331 329 325 324 328
236 239 239 241 245 245 244 247 245 242 244 244 245 247 246 244 244 248 253 256 257 258 265 271 276 282 287 294 299 303 306 309 312 315 317 323 323 329 329 327 323 323 328
234 238 239 244 245 246 244 245 244 241 242 243 245 245 243 243 244 249 254 255 259 263 269 274 278 283 289 293 299 302 304 309 313 315 318 322 324 328 327 323 321 324 329
234 237 239 243 245 246 245 246 245 241 239 242 242 242 242 244 248 251 253 257 263 268 273 276 281 284 289 295 298 302 305 308 312 315 319 321 325 326 325 321 321 325 327
234 237 239 242 249 244 247 246 245 245 242 243 244 247 248 249 251 253 257 261 266 270 275 279 284 287 290 295 298 302 306 310 312 316 319 321 324 324 322 322 322 323 326
234 237 240 244 248 244 246 246 247 245 244 244 245 247 249 251 254 256 258 262 267 272 277 281 285 288 291 295 299 303 308 310 312 315 318 321 322 322 321 320 320 322 325
238 238 241 244 246 245 243 246 247 247 248 246 248 249 248 251 255 259 264 270 273 277 281 285 289 291 294 296 300 303 305 311 313 315 318 320 320 320 319 318 319 321 323
240 238 238 242 245 246 245 246 248 248 248 250 249 251 252 253 255 260 265 269 275 278 281 284 288 290 293 297 301 304 308 311 313 315 316 317 318 317 317 317 319 320 321
240 241 239 242 246 247 246 247 248 250 251 252 253 252 254 255 258 263 268 273 277 280 283 286 289 291 296 298 303 307 309 311 311 313 314 316 316 315 315 316 317 318 319
237 240 240 241 244 248 249 249 250 251 252 253 254 256 257 259 263 266 271 274 278 282 285 287 291 294 298 301 304 306 308 308 309 310 313 314 314 313 314 315 315 317 319
236 239 241 243 243 243 245 248 251 252 254 255 258 259 262 263 266 270 270 275 279 282 285 288 291 296 299 301 303 305 306 307 308 309 312 312 312 311 313 313 314 317 317
226 234 238 238 241 243 244 245 247 251 254 256 259 261 264 264 267 269 272 275 280 283 285 288 294 297 299 301 302 303 305 306 307 309 309 309 309 310 311 312 315 316 317
231 226 233 238 241 243 246 248 251 252 255 257 260 263 264 266 267 271 274 276 279 284 286 291 294 296 297 298 300 302 303 304 306 307 307 307 307 308 308 312 315 315 316
233 232 231 232 237 241 244 247 249 251 253 256 259 262 265 266 270 272 274 278 280 282 287 291 292 294 295 297 299 300 302 303 306 306 306 305 305 306 310 312 313 314 316
232 236 240 240 239 240 243 246 249 251 254 256 258 260 265 267 269 272 274 277 279 283 286 289 291 292 293 296 298 299 301 303 306 305 305 305 305 308 311 312 313 314 317
233 236 239 242 244 245 248 246 247 252 254 257 259 261 263 267 270 271 274 278 281 283 286 288 289 291 293 295 297 300 302 304 303 304 304 304 307 309 311 311 313 315 316
236 236 238 241 244 246 248 251 253 253 256 257 259 263 265 266 268 271 274 277 280 283 284 286 288 290 292 294 297 299 299 302 302 302 302 305 308 309 311 312 313 314 315
237 239 240 241 244 246 248 251 253 256 259 260 261 262 263 265 268 271 274 277 279 281 283 285 286 290 294 296 297 297 298 298 297 301 306 307 308 309 310 311 312 313 314
233 236 239 241 243 246 250 253 255 258 260 261 262 263 265 268 270 272 274 276 278 280 283 287 291 293 293 294 294 295 294 295 298 303 304 306 308 309 310 310 311 312 313
235 235 237 239 243 245 247 250 253 255 258 260 261 263 265 267 269 272 275 278 281 284 286 286 287 289 289 289 291 292 294 298 300 302 303 303 306 307 308 309 310 311 310
236 237 237 239 241 244 246 248 251 254 256 259 262 264 267 269 272 273 276 278 278 279 281 282 283 285 286 288 291 293 296 298 299 301 302 303 305 306 307 308 307 309 309
Height
10920 10924 10927 10929 10931 10933 10935 10938 10940 10942 10944 10946 10947 10949 10951 10953 10954 10955 10956 10956 10956 10955 10954 10954 10953 10952 10952 10951 10950 10948 10946 10944 10942 10940 10937 10935 10931 10928 10925 10921 10917 10911 10907
10915 10919 10923 10925 10927 10930 10931 10933 10936 10938 10940 10941 10943 10945 10947 10949 10950 10951 10952 10952 10952 10952 10950 10950 10950 10949 10948 10947 10946 10944 10943 10941 10938 10936 10933 10930 10926 10922 10918 10914 10910 10906 10901
10912 10916 10919 10921 10924 10926 10928 10929 10931 10933 10935 10937 10938 10941 10943 10944 10945 10946 10947 10948 10948 10948 10947 10947 10946 10946 10944 10943 10941 10940 10939 10936 10934 10931 10928 10924 10920 10917 10913 10908 10904 10899 10894
10907 10911 10914 10916 10919 10921 10923 10925 10927 10929 10930 10932 10934 10936 10938 10939 10941 10941 10942 10943 10943 10944 10943 10943 10942 10942 10940 10939 10937 10936 10933 10931 10929 10926 10922 10919 10915 10911 10907 10902 10898 10892 10887
10902 10906 10909 10911 10914 10916 10918 10920 10922 10924 10926 10928 10930 10932 10933 10934 10936 10937 10938 10939 10939 10939 10939 10939 10938 10938 10936 10934 10932 10930 10928 10925 10923 10920 10917 10913 10909 10905 10901 10896 10891 10886 10881
10897 10900 10903 10906 10909 10911 10913 10915 10917 10919 10921 10923 10925 10927 10928 10930 10931 10933 10934 10934 10935 10935 10934 10934 10934 10932 10931 10929 10927 10925 10922 10919 10916 10913 10910 10906 10902 10898 10893 10888 10884 10878 10873
10891 10894 10898 10901 10903 10906 10909 10911 10912 10914 10917 10919 10922 10923 10925 10926 10927 10929 10930 10931 10930 10929 10929 10929 10928 10927 10925 10923 10921 10919 10916 10913 10910 10906 10902 10898 10895 10890 10886 10880 10875 10870 10864
10884 10888 10892 10895 10898 10901 10904 10906 10907 10909 10912 10915 10917 10919 10920 10922 10923 10924 10925 10926 10925 10924 10924 10923 10922 10921 10919 10917 10915 10912 10910 10907 10904 10899 10895 10891 10887 10882 10877 10872 10867 10861 10854
10877 10881 10885 10889 10892 10895 10899 10901 10903 10905 10907 10910 10912 10914 10916 10918 10919 10919 10920 10920 10920 10919 10918 10917 10916 10914 10912 10910 10908 10906 10903 10900 10896 10892 10888 10884 10879 10873 10868 10862 10857 10851 10846
10870 10873 10877 10881 10886 10889 10893 10896 10898 10901 10902 10905 10908 10909 10911 10912 10913 10914 10914 10914 10913 10912 10912 10911 10909 10907 10905 10903 10900 10898 10895 10892 10888 10884 10879 10875 10871 10866 10860 10854 10848 10843 10836
10862 10866 10870 10875 10879 10882 10886 10889 10892 10895 10897 10899 10901 10903 10905 10906 10906 10907 10907 10908 10907 10905 10905 10903 10902 10899 10897 10895 10893 10890 10886 10884 10880 10876 10871 10866 10861 10857 10851 10845 10839 10834 10827
10855 10860 10863 10868 10872 10875 10878 10882 10885 10888 10890 10892 10894 10897 10899 10900 10900 10901 10901 10901 10900 10899 10898 10896 10894 10891 10889 10887 10884 10882 10879 10875 10871 10866 10860 10855 10850 10845 10840 10835 10829 10823 10816
10846 10852 10856 10860 10864 10868 10872 10875 10878 10880 10883 10885 10887 10890 10891 10892 10893 10894 10894 10894 10894 10893 10891 10889 10887 10884 10882 10879 10876 10873 10869 10865 10861 10856 10851 10846 10841 10835 10829 10824 10818 10812 10805
10838 10843 10849 10853 10857 10860 10864 10868 10870 10873 10876 10878 10881 10882 10883 10884 10885 10886 10887 10886 10886 10885 10883 10881 10879 10876 10874 10871 10868 10864 10860 10855 10851 10845 10840 10834 10830 10826 10820 10813 10807 10801 10794
10828 10832 10838 10845 10849 10852 10856 10859 10862 10865 10867 10869 10872 10874 10875 10877 10878 10878 10878 10878 10877 10876 10875 10873 10870 10867 10865 10861 10858 10854 10850 10846 10840 10835 10829 10823 10818 10813 10806 10801 10795 10789 10781
10820 10824 10829 10835 10839 10843 10846 10849 10853 10856 10859 10861 10864 10865 10868 10869 10870 10870 10869 10869 10869 10868 10866 10864 10861 10858 10855 10851 10848 10844 10840 10834 10829 10823 10816 10811 10806 10800 10793 10787 10781 10773 10765
10810 10814 10820 10825 10828 10832 10836 10839 10843 10846 10849 10852 10855 10857 10858 10860 10860 10859 10860 10861 10861 10859 10856 10854 10852 10848 10845 10841 10837 10833 10828 10823 10817 10811 10804 10799 10793 10786 10780 10774 10766 10757 10748
10798 10800 10808 10814 10818 10822 10826 10830 10833 10836 10839 10843 10845 10847 10849 10850 10850 10850 10851 10851 10851 10849 10846 10844 10842 10838 10834 10831 10826 10821 10817 10811 10805 10799 10793 10787 10780 10772 10766 10758 10750 10742 10732
10787 10792 10793 10800 10806 10812 10817 10820 10823 10826 10828 10832 10835 10837 10839 10839 10840 10840 10840 10841 10840 10838 10836 10834 10830 10828 10823 10819 10815 10808 10805 10797 10792 10785 10779 10773 10765 10758 10751 10743 10735 10726 10717
10774 10779 10784 10791 10797 10802 10806 10810 10814 10817 10819 10822 10824 10825 10828 10829 10829 10829 10828 10828 10828 10826 10824 10821 10818 10815 10811 10807 10803 10796 10791 10784 10778 10771 10764 10756 10748 10741 10734 10725 10717 10707 10698
10763 10768 10772 10778 10785 10791 10795 10798 10803 10806 10809 10810 10812 10815 10817 10819 10819 10818 10817 10815 10814 10813 10811 10808 10806 10802 10797 10794 10791 10782 10775 10769 10762 10756 10749 10741 10732 10724 10716 10706 10698 10688 10678
10750 10756 10760 10766 10772 10778 10783 10788 10792 10795 10797 10799 10802 10804 10807 10808 10808 10807 10806 10803 10801 10801 10797 10794 10792 10789 10785 10779 10776 10772 10766 10755 10746 10741 10733 10725 10717 10708 10696 10686 10678 10669 10659
10735 10743 10749 10753 10760 10765 10770 10776 10780 10783 10786 10787 10789 10792 10794 10795 10795 10795 10792 10791 10789 10787 10783 10779 10777 10775 10771 10763 10758 10756 10754 10747 10738 10725 10714 10705 10696 10688 10678 10670 10661 10651 10640
10715 10725 10733 10740 10746 10753 10759 10763 10767 10770 10772 10774 10775 10778 10780 10781 10781 10780 10779 10777 10774 10772 10769 10764 10760 10757 10754 10750 10744 10739 10736 10732 10728 10723 10707 10690 10678 10665 10657 10651 10643 10630 10621
10702 10709 10716 10724 10731 10737 10743 10748 10753 10756 10758 10760 10762 10763 10765 10766 10765 10765 10764 10762 10759 10756 10753 10749 10746 10743 10740 10736 10731 10726 10720 10714 10707 10704 10696 10682 10670 10656 10643 10632 10623 10611 10603
10686 10693 10699 10708 10716 10721 10727 10733 10737 10740 10743 10745 10747 10747 10749 10750 10750 10750 10749 10748 10745 10743 10740 10736 10733 10729 10725 10721 10716 10710 10705 10698 10690 10683 10678 10668 10656 10640 10626 10616 10607 10596 10586